Regional Weather Roundup
Issued by NWS

Home | Current Version | Previous Version | Graphics & Text | Print | Product List | Glossary On
Versions: 1 2 3 4 5 6 7 8 9 10 11 12 13 14 15 16 17 18 19 20 21 22 23 24 25 26 27 28 29 30 31 32 33 34 35 36 37 38 39 40 41 42 43 44 45 46 47 48 49 50
000
ASUS43 KOAX 210102
RWRNE

WEATHER ROUNDUP FOR NEBRASKA
NATIONAL WEATHER SERVICE OMAHA NE
800 PM CDT MON OCT 20 2014

NOTES: SATELLITE DATA IS BEING USED TO AUGMENT CLOUD COVER ABOVE
       12000 FEET.
       "FAIR" INDICATES FEW OR NO CLOUDS BELOW 12,000 FEET WITH NO
       SIGNIFICANT WEATHER AND/OR OBSTRUCTIONS TO VISIBILITY.

  * THESE STATIONS DO NOT REPORT WEATHER SUCH AS RAIN...SNOW OR FOG.

NEZ001>004-019>022-054>056-210200-
NEBRASKA PANHANDLE

CITY           SKY/WX    TMP DP  RH WIND       PRES   REMARKS
SCOTTSBLUFF    CLEAR     61  40  45 SE9       29.98S
ALLIANCE       CLEAR     54  38  54 SE12      30.00S
CHADRON        CLEAR     65  42  43 S13       29.92S
KIMBALL        CLEAR     59  36  41 S9        30.04S
SIDNEY         CLEAR     58  37  45 S12       30.05S
$$

NEZ057>060-069>072-079>082-210200-
SOUTHWEST NEBRASKA

CITY           SKY/WX    TMP DP  RH WIND       PRES   REMARKS
NORTH PLATTE   CLEAR     57  41  55 SE3       30.05R
IMPERIAL       CLEAR     62  37  39 S9        30.06S
LEXINGTON      CLEAR     61  42  49 SE7       30.06S
MCCOOK         CLEAR     64  40  41 S5        30.06S
OGALLALA       CLEAR     64  41  42 S9        30.04S
$$

NEZ005>010-023>029-035>040-094-210200-
NORTH CENTRAL NEBRASKA

CITY           SKY/WX    TMP DP  RH WIND       PRES   REMARKS
VALENTINE      CLEAR     62  39  42 S7        29.99S
AINSWORTH      CLEAR     60  40  48 S8        30.02S
BROKEN BOW     CLEAR     53  41  63 CALM      30.05S
O`NEILL        CLEAR     61  43  51 SE5       30.04S
ORD            CLEAR     57  42  57 S3        30.04R
THEDFORD       CLEAR     65  40  39 S8        30.04R
$$

NEZ041-046>049-061>064-073>077-083>087-210200-
SOUTH CENTRAL NEBRASKA

CITY           SKY/WX    TMP DP  RH WIND       PRES   REMARKS
GRAND ISLAND   CLEAR     55  42  61 SE5       30.07R
AURORA         CLEAR     54  37  52 CALM      30.06R
HASTINGS       CLEAR     57  41  55 CALM      30.06S
HEBRON         CLEAR     56  41  56 CALM      30.06R
HOLDREGE       CLEAR     58  40  52 CALM      30.07R HAZE
KEARNEY *      CLEAR     57  41  54 SE6       30.07S
YORK           CLEAR     59  39  47 E5        30.06S
$$

NEZ011>018-030>034-042>045-210200-
NORTHEAST NEBRASKA

CITY           SKY/WX    TMP DP  RH WIND       PRES   REMARKS
NORFOLK        CLEAR     54  37  52 SE6       30.04S
ALBION         CLEAR     53  39  58 CALM      30.06R
BLAIR          CLEAR     63  39  41 NE5       30.05S
COLUMBUS *     CLEAR     52  34  50 CALM      30.06S
FREMONT        CLEAR     55  44  64 CALM      30.05S
TEKAMAH        CLEAR     51  40  65 CALM      30.04S
WAYNE          CLEAR     50  37  62 CALM      30.05S
$$

NEZ050>053-065>068-078-088>093-210200-
SOUTHEAST NEBRASKA

CITY           SKY/WX    TMP DP  RH WIND       PRES   REMARKS
LINCOLN        CLEAR     57  41  55 CALM      30.07R
OMAHA EPPLEY   CLEAR     53  46  77 CALM      30.05R
BEATRICE       CLEAR     55  40  56 CALM      30.06R
FALLS CITY     CLEAR     62  34  35 N3        30.05R
NEBRASKA CITY  CLEAR     61  32  33 CALM      30.06R
PLATTSMOUTH    CLEAR     63  36  36 CALM      30.05S
$$

NEZ044-045-051>053-067-210200-
OMAHA AREA

CITY           SKY/WX    TMP DP  RH WIND       PRES   REMARKS
OMAHA EPPLEY   CLEAR     53  46  77 CALM      30.05R
BLAIR          CLEAR     63  39  41 NE5       30.05S
FREMONT        CLEAR     55  44  64 CALM      30.05S
MILLARD        CLEAR     55  46  72 CALM      30.05R
OFFUTT AFB     CLEAR     49  48  95 NW1       30.04S
PLATTSMOUTH    CLEAR     63  36  36 CALM      30.05S
WAHOO          FAIR      58  34  39 CALM      30.05S
$$


USA.gov is the U.S. government's official web portal to all federal, state and local government web resources and services.